Torna al catalogo

UFO 7

USA 127

AttivoComunicazioniGEO
NORAD 23967·PAYLOAD·🇺🇸 United States

Lanciato Jul 25, 1996 da Cape Canaveral Space Force Station

Loading…

TLE

AggiornatoSource: Space-Track

Epoca: Sep 14, 2026, 06:37 UTC

1 23967U 96042A   26257.27587657 -.00000284  00000-0  00000-0 0  9992
2 23967  11.2032  16.5743 0006258 135.6009 231.5039  1.00179970110389

Traccia UFO 7 in tempo reale con AllMySat

Download on the App Store